    Observer details:
    104 San Marcello Pistoiese.  Observer P. Bacci.  Measurers P. Bacci, L. Tesi,
        G. Fagioli.  0.60-m f/4 reflector + CCD.
    204 Schiaparelli Observatory.  Observer L. Buzzi.  0.36-m f/7.1 reflector
        + CCD.
    291 LPL/Spacewatch II.  Observer J. V. Scotti.  1.8-m f/2.7 reflector + CCD.
    300 Bisei Spaceguard Center--BATTeRS.  Observers S. Urakawa, K. Nishiyama.
        1.0-m f/3.0 reflector + CCD.
    474 Mount John Observatory, Lake Tekapo.  Observers A. C. Gilmore,
        P. M. Kilmartin.  Measurer P. M. Kilmartin.  1.0-m f/7.7 reflector + CCD.
    585 Kiev comet station.  Observer A. Baransky.  0.7-m f/4 reflector + CCD.
    595 Farra d'Isonzo.  Observer E. Pettarin.  0.40-m f/4.5 reflector + CCD.
    673 Table Mountain Observatory, Wrightwood.  Observer J. Pittichova.
    703 Catalina Sky Survey.  Observers E. J. Christensen, J. A. Johnson.
        Measurers A. Boattini, E. J. Christensen, A. R. Gibbs, A. D. Grauer,
        R. E. Hill, J. A. Johnson, R. A. Kowalski, S. M. Larson, R. H. McNaught,
        F. C. Shelly.  0.68-m Schmidt + CCD.
    A79 Zvezdno Obshtestvo Observatory, Plana.  Observers F. Fratev, M. Minkov.
        Measurer F. Fratev.  0.35-m f/3.46 reflector + CCD.
    C95 SATINO Remote Observatory, Haute Provence.  Observer J. Jahn.  0.60-m
        f/3.2 Newtonian reflector + CCD.
    E10 Siding Spring-Faulkes Telescope South.  Observers M. Cross, E. Guido,
        N. Howes.  Measurers E. Guido, N. Howes.  2.0-m f/10.0 Ritchey-Chretien
        + CCD.
    E23 Arcadia.  Observer A. Hidas.  0.35-m Schmidt-Cassegrain + CCD.
    F51 Pan-STARRS 1, Haleakala.  Observers N. Primak, A. Schultz. T. Goggia,
        M. Willman.  Measurers PS1 Science Consortium, P. Veres.  1.8-m
        Ritchey-Chretien + CCD.
    G43 Observatorio Buenaventura Suarez, San Luis.  Observer E. P. A. Gonzalez.
        0.40-m f/10 Ritchey-Chretien + CCD.
    I93 St Pardon de Conques.  Observer F. Losse.  0.40-m f/3.7 reflector + CCD.
    Q62 iTelescope Observatory, Siding Spring.  Observers E. Guido, N. Howes,
        H. Sato.  0.50-m f/6.8 astrograph + CCD + f/4.5 focal reducer, 0.51-m
        f/6.8 astrograph + CCD.
    Y00 SONEAR Observatory, Oliveira.  Observers C. Jacques, E. Pimentel,
        J. Barros.  Measurer C. Jacques.  0.30-m f/3.0 reflector + CCD.
    
    Orbital elements:
    2013 PE67
    Epoch 2013 Apr. 18.0 TT = JDT 2456400.5                 MPC
    M 359.44367              (2000.0)            P               Q
    n   0.00236440     Peri.   59.47846     +0.20406464     -0.84164238
    a  55.8026696      Node   325.96130     -0.86133911     +0.08836555
    e   0.9668980      Incl.  116.71624     +0.46524462     +0.53275663
    P 417              H   16.7           G   0.15           U   4
    Residuals in seconds of arc
    130803 F51  0.1+  0.3-    130810 Q62  0.0   0.6+    130813 E23  0.0   0.1-
    130803 F51  0.0   0.1-    130810 Q62  0.1+  0.1+    130813 E23  0.2-  0.5-
    130808 F51  0.2+  0.0     130810 Q62  0.2+  0.3+    130814 E23  0.3-  0.5+
    130809 703  0.8-  0.6+    130810 E23  1.3+  0.2+    130814 E23  0.2+  0.6-
    130809 703  0.9-  0.4+    130810 E23  0.4+  0.0     130814 E23  0.3+  0.4-
    130809 703  0.5-  1.0+    130810 E23  1.1+  0.6+    130816 F51  0.2-  0.1+
    130809 703  0.3-  0.9+    130810 I93  0.5+  0.3-    130816 F51  0.1+  0.1+
    130809 703  0.1-  0.4+    130810 I93  0.3+  0.1-    130816 F51  0.0   0.1+
    130809 703  0.7-  0.5+    130810 I93  0.2-  0.0     130816 F51  0.1-  0.1+
    130809 703  0.5-  0.3+    130811 204  0.2+  0.3-    130817 E23  0.9-  0.5+
    130809 703  1.2-  0.6+    130811 204  0.1-  0.2-    130817 E23  0.3+  0.2-
    130809 703  0.7-  0.8+    130811 595  0.0   0.1+    130817 C95  0.4-  0.7+
    130809 703  0.0   0.4-    130812 C95  0.2+  0.0     130817 C95  0.3+  0.1-
    130809 291  0.0   0.2+    130812 595  0.2+  0.2-    130817 C95  0.2-  0.2-
    130809 291  0.0   0.1+    130812 C95  0.3-  0.3-    130818 585  0.2+  0.0
    130809 291  0.0   0.1+    130812 C95  0.1-  0.3-    130818 585  0.0   0.1-
    130809 703  0.6-  0.3+    130812 F51  0.1+  0.1-    130818 585  0.3-  0.3-
    130809 E10  0.1+  0.0     130812 F51  0.0   0.1-    130818 585  0.1+  0.0
    130809 E10  0.0   0.0     130812 F51  0.2-  0.0     130818 585  0.1-  0.1+
    130809 474  0.3-  0.0     130812 F51  0.1-  0.2-    130818 585  0.0   0.1-
    130809 474  0.9+  1.1-    130812 E23  0.5-  0.4+    130818 585  0.3+  0.2+
    130809 474  0.0   0.2-    130812 E23  0.4+  0.5+    130818 585  0.1+  0.0
    130810 A79  1.0-  0.3+    130812 E23  0.6-  0.7-    130818 585  0.1-  0.1-
    130810 A79  0.7+  0.3+    130812 300  0.4+  0.7-    130818 585  0.3-  0.0
    130810 A79  0.7-  0.5+    130812 300  0.5+  0.2-    130818 G43  0.0   0.1-
    130810 Y00  0.3+  0.1+    130812 300  1.1+  1.1-    130818 673  0.3-  0.0
    130810 Y00  0.0   0.1-    130812 300  0.6+  0.8-    130818 673  0.6+  0.1-
    130810 Y00  0.1+  0.1-    130812 104  0.3+  0.3-    130818 E23  0.2+  0.6+
    130810 Q62  0.2+  0.7-    130812 104  0.2+  0.1-    130818 E23  0.2+  0.3-
    130810 Q62  0.1-  0.2+    130812 104  0.3+  0.2-
    130810 Q62  0.1+  0.3+    130813 E23  0.2+  0.5-
    
    Ephemeris:
    2013 PE67                a,e,i = 55.80, 0.97, 117                q = 1.8472
    Date    TT    R. A. (2000) Decl.     Delta      r     Elong.  Phase     V
    2013 07 19    23 13 14.7 -10 09 51   1.7440  2.5284   130.9    17.7    20.8
    ...
    2013 08 03    22 28 22.6 -08 02 49   1.4571  2.4141   154.8    10.3    20.1
    ...
    2013 08 11    21 56 09.5 -06 36 26   1.3545  2.3555   168.1     5.1    19.6
    ...
    2013 08 17    21 29 06.6 -05 22 49   1.3074  2.3126   170.9     4.0    19.5
    2013 08 18    21 24 27.1 -05 09 58   1.3022  2.3056   169.9     4.4    19.5
    2013 08 19    21 19 46.0 -04 56 59   1.2978  2.2986   168.6     5.0    19.5
    ...
    2013 08 25    20 51 30.2 -03 37 32   1.2880  2.2574   158.1     9.6    19.6
    ...
    2013 09 02    20 15 21.1 -01 53 12   1.3170  2.2044   142.4    16.2    19.9
    ...
    2013 09 17    19 20 27.2 +00 52 36   1.4748  2.1120   115.5    25.4    20.3
    
    A. U. Tomatic                (C) Copyright 2013 MPC           M.P.E.C. 2013-Q15
    

    Read MPEC 2013-Q14 Read MPEC 2013-Q16


    MPEC number:

    Enter an MPEC number in one of the following forms:

    • 1997-B01 (the full form)
    • J97B01 (the packed version of the full form)
    • B01 (the abbreviated form)